EW5523 Weather Reports


time (UTC)temp
C
wind
direction
speed
KPH
gust
KPH
rain 1hr
cm
rain 24hr
cm
rain mn
cm
humidity
%
barometer
mb
20260902003042 10 102 0.0 0.0 0.00 0.00 0.00 94 1017.7
20260902001536 11 102 0.0 0.0 0.00 0.00 0.00 95 1017.8
20260902000034 11 102 0.0 0.0 0.00 0.00 0.00 95 1017.9
20260901234534 11 102 0.0 0.0 0.00 0.00 0.00 94 1018.0
20260901233034 11 102 0.0 0.0 0.00 0.00 0.00 94 1017.9
20260901231533 11 102 0.0 0.0 0.00 0.00 0.00 93 1017.9
20260901230036 12 102 0.0 0.0 0.00 0.00 0.00 95 1018.1
20260901224530 11 102 0.0 0.0 0.00 0.00 0.00 95 1018.1
20260901223029 11 101 0.0 0.0 0.00 0.00 0.00 94 1018.0
20260901221533 11 101 0.0 0.0 0.00 0.00 0.00 94 1018.0
20260901220052 11 101 0.0 0.0 0.00 0.00 0.00 94 1018.1
20260901214525 11 101 0.0 0.0 0.00 0.00 0.00 94 1018.2
20260901213056 11 101 0.0 0.0 0.00 0.00 0.00 93 1018.2
20260901211525 11 101 0.0 0.0 0.00 0.00 0.00 93 1018.2
20260901210024 11 101 0.0 0.0 0.00 0.00 0.00 93 1018.2
20260901204534 11 101 0.0 0.0 0.00 0.00 0.00 93 1018.3
20260901203044 11 101 0.0 0.0 0.00 0.00 0.00 93 1018.3
20260901201521 11 101 0.0 0.0 0.00 0.00 0.00 92 1018.3
20260901200019 11 101 0.0 0.0 0.00 0.00 0.00 92 1018.1
20260901194519 11 101 0.0 0.0 0.00 0.00 0.00 93 1018.2
20260901193018 11 101 0.0 0.0 0.00 0.00 0.00 92 1018.2
20260901191518 11 101 0.0 0.0 0.00 0.00 0.00 92 1018.2
20260901190016 11 101 0.0 0.0 0.00 0.00 0.00 92 1018.2
20260901184524 12 101 0.0 0.0 0.00 0.00 0.00 92 1018.2
20260901183014 12 101 0.0 0.0 0.00 0.00 0.00 93 1018.3
20260901181513 12 101 0.0 0.0 0.00 0.00 0.00 93 1018.3
20260901180013 12 101 0.0 0.0 0.00 0.00 0.00 93 1018.3
20260901174512 12 101 0.0 0.0 0.00 0.00 0.00 93 1018.3
20260901173011 12 101 0.0 0.0 0.00 0.00 0.00 93 1018.4
20260901171511 12 101 0.0 0.0 0.00 0.00 0.00 93 1018.4
20260901170009 12 101 0.0 0.0 0.00 0.00 0.00 93 1018.4
20260901164508 12 101 0.0 0.0 0.00 0.00 0.00 92 1018.5
20260901163009 12 101 0.0 0.0 0.00 0.00 0.00 91 1018.4
20260901161507 12 101 0.0 0.0 0.00 0.00 0.00 90 1018.4
20260901160003 12 101 0.0 0.0 0.00 0.00 0.00 90 1018.4
20260901154501 13 101 0.0 0.0 0.00 0.00 0.00 90 1018.4
20260901153058 13 101 0.0 0.0 0.00 0.00 0.00 90 1018.4
20260901151604 13 101 0.0 0.0 0.00 0.00 0.00 89 1018.3
20260901111521 15 117 0.0 0.0 0.00 0.00 0.00 78 1018.9
20260901110020 15 119 0.0 1.6 0.00 0.00 0.00 78 1018.8
20260901104518 15 124 0.0 0.0 0.00 0.00 0.00 78 1018.9
20260901103024 14 93 0.0 0.0 0.00 0.00 0.00 79 1018.9
20260901101513 13 111 0.0 1.6 0.00 0.00 0.00 79 1019.0
20260901100011 13 100 0.0 0.0 0.00 0.00 0.00 81 1019.0
20260901094513 13 120 0.0 0.0 0.00 0.00 0.00 83 1019.0
20260901093008 13 115 0.0 0.0 0.00 0.00 0.00 84 1019.1
20260901091506 12 119 0.0 0.0 0.00 0.00 0.00 85 1019.2
20260901090008 12 120 0.0 1.6 0.00 0.00 0.00 86 1019.1
20260901084504 12 86 0.0 0.0 0.00 0.00 0.00 86 1019.2
20260901083002 12 89 0.0 0.0 0.00 0.00 0.00 88 1019.1
20260901081601 12 117 0.0 0.0 0.00 0.00 0.00 88 1019.1
20260901080110 12 78 0.0 1.6 0.00 0.00 0.00 87 1019.1
20260901074600 11 116 0.0 0.0 0.00 0.00 0.00 84 1019.1
20260901073057 11 110 0.0 0.0 0.00 0.00 0.00 85 1019.1
20260901071555 11 138 0.0 1.6 0.00 0.00 0.00 84 1019.1
20260901070055 11 104 0.0 0.0 0.00 0.00 0.00 84 1019.0
20260901064553 11 102 0.0 3.2 0.00 0.00 0.00 84 1019.0
20260901063051 11 72 0.0 0.0 0.00 0.00 0.00 85 1019.0
20260901061550 11 100 0.0 0.0 0.00 0.00 0.00 87 1019.0
20260901060048 11 73 0.0 0.0 0.00 0.00 0.00 89 1019.0
20260901054547 10 74 0.0 3.2 0.00 0.00 0.00 90 1018.9
20260901053114 10 73 0.0 1.6 0.00 0.00 0.00 91 1018.9
20260901051600 10 54 0.0 1.6 0.00 0.00 0.00 92 1018.9
20260901050042 10 83 0.0 3.2 0.00 0.00 0.00 92 1018.8
20260901044552 10 89 0.0 0.0 0.00 0.00 0.00 93 1018.7
20260901043040 10 89 0.0 0.0 0.00 0.00 0.00 93 1018.6
20260901041538 10 95 0.0 0.0 0.00 0.00 0.00 93 1018.7
20260901040051 9 90 0.0 1.6 0.00 0.00 0.00 93 1018.5
20260901034543 9 93 0.0 3.2 0.00 0.00 0.00 93 1018.5
20260901033037 9 77 0.0 0.0 0.00 0.00 0.00 93 1018.4
20260901031535 9 97 0.0 0.0 0.00 0.00 0.00 93 1018.5
20260901030035 9 87 0.0 0.0 0.00 0.00 0.00 93 1018.4
20260901024534 8 92 0.0 0.0 0.00 0.00 0.00 93 1018.2
20260901023043 8 97 0.0 0.0 0.00 0.00 0.00 93 1018.2
20260901021532 8 97 0.0 0.0 0.00 0.00 0.00 92 1018.2
20260901020035 8 97 0.0 0.0 0.00 0.00 0.00 91 1018.1
20260901014530 8 118 0.0 0.0 0.00 0.00 0.00 92 1018.0
20260901013031 9 80 0.0 0.0 0.00 0.00 0.00 93 1018.0
20260901011530 9 319 0.0 0.0 0.00 0.00 0.00 94 1018.1
20260901010029 9 319 0.0 0.0 0.00 0.00 0.00 94 1018.1
20260901004527 9 317 0.0 0.0 0.00 0.00 0.00 94 1018.0